This demonstration page uses our WeatherBlox Daily Observations layout. Learn more.

Left ArrowRight Arrow

47.50024, -111.30081

Hourly Observations for April 16, 2018

Temp ( °F °C ) Dew Point ( °F °C ) Humidity (%) Winds ( mph kmh ) Pressure ( in mb ) Visibility ( mi km ) Precip ( " mm )
12:53 am 00:53 Mostly Clear 46 7.8 35 1.7 66 66 ESE 12 19 29.69 1005 10 16 0.00 0.00
1:53 am 01:53 Mostly Cloudy 46 7.8 35 1.7 66 66 ESE 8 13 29.65 1004 10 16 0.00 0.00
2:53 am 02:53 Cloudy 44 6.7 35 1.7 71 71 E 5 7 29.62 1003 10 16 0.00 0.00
3:53 am 03:53 Cloudy 44 6.7 36 2.2 73 73 E 8 13 29.62 1003 10 16 0.00 0.00
4:53 am 04:53 Mostly Cloudy 42 5.6 36 2.2 79 79 NE 7 11 29.59 1002 10 16 0.00 0.00
5:53 am 05:53 Mostly Cloudy 41 5 36 2.2 82 82 NE 7 11 29.57 1001 10 16 0.00 0.00
6:53 am 06:53 Cloudy 39 3.9 36 2.2 89 89 NNW 10 17 29.57 1002 10 16 0.00 0.00
7:53 am 07:53 Partly Cloudy 39 3.9 36 2.2 89 89 NW 16 26 29.61 1003 10 16 0.00 0.00
8:00 am 08:00 Mostly Cloudy 38 3.3 35 1.7 89 89 NW 17 28 29.62 1003 10 16 0.00 0.00
8:22 am 08:22 Mostly Cloudy 38 3.3 35 1.7 89 89 NW 15 24 29.62 1003 7 11 0.00 0.00
8:29 am 08:29 Mostly Cloudy 39 3.9 36 2.2 89 89 WNW 17 28 29.65 1004 7 11 0.00 0.00
8:37 am 08:37 Mostly Cloudy 40 4.4 36 2.2 86 86 NW 15 24 29.65 1004 8 13 0.00 0.00
8:53 am 08:53 Mostly Cloudy 39 3.9 35 1.7 86 86 WNW 15 24 29.64 1004 8 13 0.00 0.00
9:23 am 09:23 Cloudy 41 5 36 2.2 82 82 NW 12 19 29.62 1003 9 14 0.00 0.00
9:53 am 09:53 Mostly Cloudy 42 5.6 36 2.2 79 79 NW 10 17 29.62 1003 10 16 0.00 0.00
10:23 am 10:23 Cloudy 41 5 36 2.2 82 82 NNW 9 15 29.59 1002 10 16 0.00 0.00
10:53 am 10:53 Cloudy 42 5.6 35 1.7 76 76 WNW 14 22 29.62 1003 10 16 0.00 0.00
11:53 am 11:53 Cloudy 40 4.4 34 1.1 79 79 NW 15 24 29.65 1004 10 16 0.00 0.00
12:23 pm 12:23 Cloudy 42 5.6 34 1.1 73 73 NW 15 24 29.62 1003 10 16 0.00 0.00
12:40 pm 12:40 Partly Cloudy 43 6.1 34 1.1 71 71 NW 9 15 29.62 1003 10 16 0.00 0.00
12:53 pm 12:53 Partly Cloudy 44 6.7 35 1.7 71 71 NW 8 13 29.62 1003 10 16 0.00 0.00
1:19 pm 13:19 Cloudy 43 6.1 35 1.7 74 74 W 7 11 29.65 1004 10 16 0.00 0.00
1:39 pm 13:39 Cloudy 42 5.6 35 1.7 76 76 WSW 5 7 29.62 1003 10 16 0.00 0.00
1:53 pm 13:53 Cloudy with Light Rain 43 6.1 36 2.2 76 76 WSW 6 9 29.61 1003 10 16 0.00 0.03
2:53 pm 14:53 Cloudy with Light Rain 42 5.6 37 2.8 82 82 WSW 12 19 29.66 1004 9 14 0.00 0.03
3:00 pm 15:00 Cloudy with Light Rain 42 5.6 38 3.3 85 85 WSW 10 17 29.65 1004 7 11 0.00 0.03
3:21 pm 15:21 Cloudy with Light Rain 41 5 38 3.3 89 89 W 6 9 29.65 1004 5 8 0.02 0.51
3:41 pm 15:41 Cloudy with Light Rain 41 5 38 3.3 89 89 NNW 3 6 29.65 1004 8 13 0.04 1.02
3:53 pm 15:53 Cloudy with Light Rain 41 5 37 2.8 86 86 WNW 3 6 29.67 1005 10 16 0.04 1.02
4:53 pm 16:53 Cloudy with Light Rain 43 6.1 39 3.9 86 86 VRB 3 6 29.67 1005 10 16 0.04 1.02
5:53 pm 17:53 Cloudy 43 6.1 39 3.9 86 86 S 12 19 29.66 1004 10 16 0.00 0.03
6:53 pm 18:53 Cloudy 43 6.1 39 3.9 86 86 SSW 10 17 29.69 1005 10 16 0.00 0.00
7:53 pm 19:53 Cloudy 42 5.6 35 1.7 76 76 W 6 9 29.68 1005 10 16 0.00 0.03
8:53 pm 20:53 Cloudy 38 3.3 36 2.2 93 93 Calm 29.73 1007 10 16 0.00 0.00
9:53 pm 21:53 Mostly Clear 37 2.8 35 1.7 93 93 NW 5 7 29.74 1007 8 13 0.00 0.00
10:53 pm 22:53 Partly Cloudy 36 2.2 35 1.7 97 97 Calm 29.75 1008 7 11 0.00 0.00
11:53 pm 23:53 Mostly Clear 35 1.7 34 1.1 96 96 Calm 29.76 1008 7 11 0.00 0.00

Powered by AerisWeather